GEO-KOMPSAT-2A

Last updated on Sun Jun 15 2025 00:02:20 GMT+0000 (Coordinated Universal Time)

1 43823U 18100A 25165.57508006 -.00000330 00000+0 00000+0 0 9995 2 43823 0.0542 140.8441 0002421 306.5516 151.0157 1.00271523 23972
UTC large
Height (km)
Speed (km/s)
/
Latitude / Longitude
Inclination (degrees)
Orbital Period (minutes)
Azimuth
Elevation
Range (km)
Doppler Factor

Next 0 passes for location: London (51.5072 / 0.1276)

Sorry there are no passes over London.